GW6738 Weather Reports


time (UTC)temp
C
wind
direction
speed
KPH
gust
KPH
rain 1hr
cm
rain 24hr
cm
rain mn
cm
humidity
%
barometer
mb
20260906103510 21 100 0.0 0.0 0.00 0.71 0.00 95 1013.4
20260906103027 21 117 0.0 0.0 0.00 0.71 0.00 95 1013.5
20260906102513 21 117 0.0 0.0 0.00 0.71 0.00 95 1013.5
20260906102012 21 186 0.0 0.0 0.00 0.71 0.00 95 1013.5
20260906101535 21 191 0.0 0.0 0.00 0.71 0.00 95 1013.4
20260906101019 21 296 0.0 0.0 0.00 0.71 0.00 95 1013.2
20260906100520 21 296 0.0 0.0 0.00 0.71 0.00 95 1013.1
20260906100035 21 290 0.0 0.0 0.00 0.71 0.00 94 1013.1
20260906095520 21 290 0.0 0.0 0.00 0.71 0.00 94 1013.0
20260906095018 21 290 0.0 0.0 0.00 0.71 0.00 94 1012.9
20260906094554 21 290 0.0 0.0 0.00 0.71 0.00 94 1012.8
20260906094016 21 290 0.0 0.0 0.00 0.71 0.00 94 1012.8
20260906093510 21 290 0.0 0.0 0.00 0.71 0.00 94 1012.8
20260906093039 21 290 0.0 0.0 0.00 0.71 0.00 94 1012.8
20260906092514 21 290 0.0 0.0 0.00 0.71 0.00 94 1012.9
20260906092014 21 290 0.0 0.0 0.00 0.71 0.00 94 1012.8
20260906091529 21 290 0.0 0.0 0.00 0.71 0.00 93 1012.8
20260906091016 21 290 0.0 0.0 0.00 0.71 0.00 93 1012.7
20260906090515 21 290 0.0 0.0 0.00 0.71 0.00 94 1012.7
20260906090033 21 290 0.0 0.0 0.00 0.71 0.00 93 1012.6
20260906085518 21 289 0.0 0.0 0.00 0.71 0.00 93 1012.5
20260906085005 21 289 0.0 0.0 0.00 0.71 0.00 93 1012.5
20260906084517 21 289 0.0 0.0 0.00 0.71 0.00 93 1012.4
20260906084015 21 289 0.0 0.0 0.00 0.71 0.00 93 1012.4
20260906083510 21 289 0.0 0.0 0.00 0.71 0.00 93 1012.4
20260906083043 21 289 0.0 0.0 0.00 0.71 0.00 93 1012.5
20260906082519 21 289 0.0 0.0 0.00 0.71 0.00 93 1012.6
20260906082024 21 289 0.0 0.0 0.00 0.71 0.00 93 1012.5
20260906081533 21 289 0.0 0.0 0.00 0.71 0.00 93 1012.3
20260906081015 21 289 0.0 0.0 0.00 0.71 0.00 93 1012.2
20260906080519 21 289 0.0 0.0 0.00 0.71 0.00 93 1012.0
20260906080039 21 289 0.0 0.0 0.00 0.71 0.00 93 1012.1
20260906075514 21 279 0.0 0.0 0.00 0.71 0.00 93 1012.0
20260906075018 21 279 0.0 0.0 0.00 0.71 0.00 93 1011.8
20260906074534 21 279 0.0 0.0 0.00 0.71 0.00 93 1011.8
20260906074007 21 279 0.0 0.0 0.00 0.71 0.00 93 1011.8
20260906073509 21 279 0.0 0.0 0.00 0.71 0.00 93 1011.8
20260906073028 21 275 0.0 0.0 0.00 0.71 0.00 93 1011.8
20260906072510 21 265 0.0 0.0 0.00 0.71 0.00 93 1011.9
20260906072014 21 265 0.0 0.0 0.00 0.71 0.00 93 1011.9
20260906071522 21 265 0.0 0.0 0.00 0.71 0.00 93 1012.1
20260906071014 21 227 0.0 0.0 0.00 0.71 0.00 93 1012.2
20260906070516 21 227 0.0 0.0 0.00 0.71 0.00 93 1012.4
20260906070033 21 230 0.0 0.0 0.00 0.71 0.00 93 1012.3
20260906065516 21 273 0.0 0.0 0.00 0.71 0.00 93 1012.4
20260906065016 21 273 0.0 0.0 0.00 0.71 0.00 93 1012.4
20260906064529 21 273 0.0 0.0 0.00 0.71 0.00 93 1012.4
20260906064015 21 273 0.0 0.0 0.00 0.71 0.00 93 1012.6
20260906063506 21 273 0.0 0.0 0.00 0.71 0.00 93 1012.7
20260906063019 21 273 0.0 0.0 0.00 0.71 0.00 93 1012.7
20260906062509 21 273 0.0 0.0 0.00 0.71 0.00 93 1012.7
20260906062010 22 273 0.0 0.0 0.00 0.71 0.00 93 1012.8
20260906061537 22 273 0.0 0.0 0.00 0.71 0.00 93 1012.9
20260906061012 22 273 0.0 0.0 0.00 0.71 0.00 93 1012.8
20260906060519 22 273 0.0 0.0 0.00 0.71 0.00 93 1012.8
20260906060035 22 273 0.0 0.0 0.00 0.71 0.00 93 1012.9
20260906055515 22 273 0.0 0.0 0.00 0.71 0.00 93 1012.9
20260906055016 22 273 0.0 0.0 0.00 0.71 0.00 93 1012.9
20260906054535 22 273 0.0 0.0 0.00 0.71 0.00 93 1012.8
20260906054021 22 273 0.0 0.0 0.00 0.71 0.00 93 1012.8
20260906053515 22 273 0.0 0.0 0.00 0.71 0.00 93 1012.7
20260906053031 22 273 0.0 0.0 0.00 0.71 0.00 93 1012.6
20260906052510 22 273 0.0 0.0 0.00 0.71 0.00 93 1012.7
20260906052008 22 273 0.0 0.0 0.00 0.71 0.00 93 1012.6
20260906051520 22 273 0.0 0.0 0.00 0.71 0.00 93 1012.7
20260906051014 22 273 0.0 0.0 0.00 0.71 0.00 93 1012.7
20260906050511 22 273 0.0 0.0 0.00 0.71 0.00 93 1012.7
20260906050034 22 273 0.0 0.0 0.00 0.71 0.00 93 1012.7
20260906045518 22 273 0.0 0.0 0.00 0.71 0.00 93 1012.8
20260906045015 22 273 0.0 0.0 0.00 0.71 0.00 93 1012.9
20260906044532 22 273 0.0 0.0 0.00 0.71 0.00 93 1012.9
20260906044015 22 273 0.0 0.0 0.00 0.71 0.00 93 1012.9
20260906043516 22 273 0.0 0.0 0.00 0.71 0.00 92 1013.0
20260906043030 22 273 0.0 0.0 0.00 0.71 0.00 93 1013.0
20260906042518 22 273 0.0 0.0 0.00 0.71 0.00 93 1013.1
20260906042014 22 273 0.0 0.0 0.00 0.71 0.00 93 1013.2
20260906041537 22 273 0.0 0.0 0.00 0.71 0.00 93 1013.4
20260906041020 22 273 0.0 0.0 0.00 0.71 0.00 93 1013.4
20260906040519 22 273 0.0 0.0 0.00 0.71 0.00 93 1013.2
20260906040029 22 273 0.0 0.0 0.00 0.71 0.00 93 1013.2
20260906035511 22 273 0.0 0.0 0.00 0.71 0.71 93 1013.1
20260906035013 22 273 0.0 0.0 0.00 0.71 0.71 93 1013.1
20260906034529 22 273 0.0 0.0 0.00 0.71 0.71 93 1013.1
20260906034014 22 273 0.0 0.0 0.00 0.71 0.71 93 1013.2
20260906033515 22 273 0.0 0.0 0.00 0.71 0.71 93 1013.3
20260906033044 22 273 0.0 0.0 0.00 0.71 0.71 93 1013.3
20260906032516 22 273 0.0 0.0 0.00 0.71 0.71 93 1013.1
20260906032015 22 273 0.0 0.0 0.00 0.71 0.71 93 1013.1
20260906031538 22 273 0.0 0.0 0.00 0.71 0.71 92 1013.0
20260906031019 22 273 0.0 0.0 0.00 0.71 0.71 92 1013.0
20260906030516 22 273 0.0 0.0 0.00 0.71 0.71 92 1013.0
20260906030019 22 273 0.0 0.0 0.00 0.71 0.71 92 1013.0
20260906025511 22 273 0.0 0.0 0.00 0.71 0.71 92 1013.2
20260906025012 22 273 0.0 0.0 0.00 0.71 0.71 92 1013.2
20260906024541 22 273 0.0 0.0 0.00 0.71 0.71 92 1013.1
20260906024003 22 273 0.0 0.0 0.00 0.71 0.71 92 1013.0
20260906023505 22 273 0.0 0.0 0.00 0.71 0.71 92 1012.9
20260906023033 22 273 0.0 0.0 0.00 0.71 0.71 92 1012.9
20260906022516 22 273 0.0 0.0 0.00 0.71 0.71 92 1012.9
20260906022006 22 273 0.0 0.0 0.00 0.71 0.71 92 1012.9
20260906021512 22 273 0.0 0.0 0.00 0.71 0.71 92 1012.9
20260906021019 22 273 0.0 0.0 0.00 0.71 0.71 91 1012.8
20260906020508 23 273 0.0 0.0 0.00 0.71 0.71 91 1012.8
20260906020018 23 273 0.0 0.0 0.00 0.71 0.71 91 1012.9
20260906015509 23 273 0.0 0.0 0.00 0.71 0.71 91 1012.9
20260906015011 23 273 0.0 0.0 0.00 0.71 0.71 91 1013.0
20260906014537 23 273 0.0 0.0 0.00 0.71 0.71 91 1013.0
20260906014009 23 273 0.0 0.0 0.00 0.71 0.71 90 1012.7
20260906013503 23 273 0.0 0.0 0.00 0.71 0.71 90 1012.7
20260906013020 23 273 0.0 0.0 0.00 0.71 0.71 90 1012.6
20260906012505 23 273 0.0 0.0 0.00 0.71 0.71 90 1012.5
20260906012004 23 273 0.0 0.0 0.00 0.71 0.71 90 1012.5
20260906011530 23 273 0.0 0.0 0.00 0.71 0.71 89 1012.6
20260906011005 23 273 0.0 0.0 0.00 0.71 0.71 89 1012.5
20260906010508 23 273 0.0 0.0 0.00 0.71 0.71 89 1012.4
20260906010015 23 273 0.0 0.0 0.00 0.71 0.71 88 1012.4
20260906005506 23 273 0.0 0.0 0.00 0.71 0.71 88 1012.4
20260906005011 23 273 0.0 0.0 0.00 0.71 0.71 88 1012.3
20260906004520 23 273 0.0 1.6 0.00 0.71 0.71 87 1012.3
20260906004024 23 273 0.0 1.6 0.00 0.71 0.71 87 1012.3
20260906003512 23 273 0.0 0.0 0.00 0.71 0.71 87 1012.2
20260906003031 23 273 0.0 0.0 0.00 0.71 0.71 86 1012.2
20260906002503 24 273 0.0 0.0 0.00 0.71 0.71 86 1012.0
20260906002013 24 273 0.0 0.0 0.00 0.71 0.71 85 1012.0
20260906001508 24 273 0.0 0.0 0.00 0.71 0.71 85 1012.0
20260906001003 24 273 0.0 0.0 0.00 0.71 0.71 83 1012.0
20260906000516 25 273 0.0 0.0 0.00 0.71 0.71 83 1012.0
20260906000012 25 273 0.0 0.0 0.00 0.71 0.71 83 1011.9
20260905235503 25 273 0.0 0.0 0.00 0.71 0.71 82 1011.9
20260905235008 25 273 0.0 0.0 0.00 0.71 0.71 82 1011.9
20260905234518 25 273 0.0 0.0 0.00 0.71 0.71 81 1011.7
20260905234010 25 273 0.0 3.2 0.00 0.71 0.71 81 1011.8
20260905233515 25 273 0.0 3.2 0.00 0.71 0.71 80 1011.8
20260905233026 26 273 0.0 3.2 0.00 0.71 0.71 78 1011.8
20260905232513 26 273 0.0 3.2 0.00 0.71 0.71 78 1011.7
20260905232013 26 273 0.0 3.2 0.00 0.71 0.71 76 1011.8
20260905231529 26 290 0.0 3.2 0.00 0.71 0.71 76 1011.7
20260905231003 26 290 0.0 1.6 0.00 0.71 0.71 76 1011.8
20260905230514 26 290 0.0 3.2 0.00 0.71 0.71 75 1011.8
20260905230010 26 290 0.0 1.6 0.00 0.71 0.71 74 1011.6
20260905225506 27 290 0.0 3.2 0.00 0.71 0.71 74 1011.6
20260905225016 27 290 0.0 3.2 0.00 0.71 0.71 73 1011.6
20260905224514 27 311 0.0 3.2 0.00 0.71 0.71 73 1011.7
20260905224011 27 311 0.0 3.2 0.00 0.71 0.71 71 1011.8
20260905223509 27 341 0.0 3.2 0.00 0.71 0.71 73 1011.7
20260905223033 27 294 0.0 3.2 0.00 0.71 0.71 73 1011.6
20260905222512 27 290 0.0 3.2 0.00 0.71 0.71 72 1011.6
20260905222012 27 290 0.0 3.2 0.00 0.71 0.71 74 1011.7
20260905221528 27 290 0.0 3.2 0.00 0.71 0.71 77 1011.5
20260905221014 27 290 1.6 3.2 0.00 0.71 0.71 73 1011.5
20260905220514 27 298 1.6 3.2 0.00 0.71 0.71 73 1011.5
20260905220007 27 253 0.0 3.2 0.00 0.71 0.71 73 1011.6
20260905215507 27 232 0.0 3.2 0.00 0.71 0.71 74 1011.8
20260905215005 26 269 0.0 3.2 0.00 0.71 0.71 75 1012.0
20260905214515 26 214 0.0 3.2 0.00 0.71 0.71 77 1012.0
20260905214009 26 234 0.0 3.2 0.00 0.71 0.71 75 1012.1
20260905213510 26 233 0.0 3.2 0.00 0.71 0.71 77 1012.1
20260905213019 25 159 0.0 3.2 0.00 0.71 0.71 78 1012.2
20260905212510 25 141 0.0 3.2 0.00 0.71 0.71 78 1012.3
20260905212013 25 141 0.0 3.2 0.00 0.71 0.71 77 1012.4
20260905211535 25 166 0.0 3.2 0.00 0.76 0.71 80 1012.3
20260905211014 25 136 0.0 3.2 0.00 0.81 0.71 80 1012.3
20260905210515 25 127 1.6 3.2 0.00 0.81 0.71 79 1012.4
20260905210039 25 253 0.0 3.2 0.00 0.81 0.71 80 1012.4
20260905205516 25 253 0.0 3.2 0.00 0.81 0.71 81 1012.3
20260905205010 25 266 0.0 3.2 0.00 0.81 0.71 81 1012.2
20260905204511 25 269 0.0 3.2 0.00 0.81 0.71 83 1012.4
20260905204018 24 269 0.0 6.4 0.00 0.81 0.71 84 1012.4
20260905203507 24 224 0.0 4.8 0.00 0.81 0.71 83 1012.3
20260905203016 24 255 1.6 9.7 0.00 0.81 0.71 84 1012.3
20260905202514 23 261 1.6 9.7 0.00 0.81 0.71 85 1012.2
20260905202010 23 230 3.2 6.4 0.00 0.81 0.71 86 1012.4
20260905201523 23 274 1.6 4.8 0.00 0.81 0.71 89 1012.4
20260905201012 23 209 1.6 4.8 0.00 0.81 0.71 89 1012.4
20260905200519 23 202 0.0 3.2 0.00 0.81 0.71 90 1012.2
20260905200028 22 105 0.0 3.2 0.00 0.81 0.71 91 1012.2
20260905195516 22 102 0.0 3.2 0.00 0.81 0.71 91 1012.2
20260905195018 22 211 0.0 3.2 0.00 0.81 0.71 91 1012.8
20260905194530 22 110 0.0 3.2 0.00 0.81 0.71 90 1012.9
20260905194006 22 111 1.6 9.7 0.00 0.81 0.71 91 1013.2
20260905193507 22 128 3.2 9.7 0.00 0.81 0.71 91 1013.3
20260905193012 22 94 1.6 4.8 0.00 0.81 0.71 92 1013.4
20260905192512 21 110 3.2 4.8 0.00 0.81 0.71 92 1013.3
20260905192009 21 252 0.0 3.2 0.03 0.81 0.71 92 1013.3
20260905191518 21 287 0.0 3.2 0.10 0.81 0.71 92 1012.5
20260905191013 21 277 0.0 3.2 0.23 0.81 0.71 91 1012.2
20260905190511 21 270 0.0 3.2 0.64 0.81 0.71 90 1012.1
20260905190027 21 149 0.0 3.2 0.71 0.81 0.71 89 1011.7
20260905185513 21 149 0.0 4.8 0.71 0.81 0.71 90 1011.2
20260905185015 21 82 1.6 4.8 0.71 0.81 0.71 89 1011.0
20260905184538 21 113 1.6 4.8 0.71 0.81 0.71 88 1011.4
20260905184015 21 115 3.2 4.8 0.71 0.81 0.71 87 1011.8
20260905183522 21 116 0.0 3.2 0.71 0.81 0.71 88 1012.0
20260905183013 21 190 0.0 4.8 0.71 0.81 0.71 88 1012.0
20260905182504 21 258 0.0 8.0 0.71 0.81 0.71 83 1012.5
20260905182008 22 273 3.2 11.3 0.69 0.79 0.69 82 1013.2
20260905181517 22 243 3.2 16.1 0.61 0.71 0.61 72 1014.0
20260905181022 24 352 6.4 32.2 0.48 0.58 0.48 72 1014.7
20260905180510 27 347 8.0 32.2 0.08 0.18 0.08 60 1014.3
20260905180024 31 236 4.8 32.2 0.00 0.10 0.00 52 1013.4
20260905175515 33 321 8.0 32.2 0.00 0.10 0.00 55 1012.7
20260905175014 33 288 1.6 9.7 0.00 0.10 0.00 52 1012.5
20260905174526 33 284 3.2 9.7 0.00 0.10 0.00 51 1012.4
20260905174013 34 200 1.6 6.4 0.00 0.10 0.00 53 1012.4
20260905173516 34 65 1.6 6.4 0.00 0.10 0.00 53 1012.2
20260905173033 34 311 1.6 6.4 0.00 0.10 0.00 55 1012.6
20260905172516 33 229 0.0 4.8 0.00 0.10 0.00 55 1012.8
20260905172006 33 306 0.0 6.4 0.00 0.10 0.00 56 1012.8
20260905171516 33 183 1.6 6.4 0.00 0.10 0.00 56 1013.2
20260905171007 33 302 1.6 6.4 0.00 0.10 0.00 57 1013.2
20260905170510 33 80 1.6 6.4 0.00 0.10 0.00 57 1013.3
20260905170035 33 259 1.6 8.0 0.00 0.10 0.00 58 1013.5
20260905165511 33 302 3.2 8.0 0.00 0.10 0.00 56 1013.6
20260905165016 33 302 1.6 4.8 0.00 0.10 0.00 58 1013.7
20260905164525 33 298 0.0 4.8 0.00 0.10 0.00 59 1013.7
20260905164017 33 188 1.6 4.8 0.00 0.10 0.00 58 1013.7
20260905163514 33 284 1.6 4.8 0.00 0.10 0.00 56 1013.8
20260905163036 32 224 0.0 4.8 0.00 0.10 0.00 57 1013.8
20260905162516 32 244 1.6 8.0 0.00 0.10 0.00 57 1013.9
20260905162015 32 230 0.0 8.0 0.00 0.10 0.00 56 1014.0
20260905161532 32 300 3.2 8.0 0.00 0.10 0.00 58 1014.0
20260905161020 32 232 1.6 4.8 0.00 0.10 0.00 57 1014.1
20260905160507 32 313 0.0 4.8 0.00 0.10 0.00 60 1014.0
20260905160033 32 214 1.6 4.8 0.00 0.10 0.00 59 1014.1
20260905155509 32 247 1.6 4.8 0.00 0.10 0.00 59 1014.1
20260905155008 32 248 0.0 6.4 0.00 0.10 0.00 60 1014.2
20260905154523 32 269 1.6 6.4 0.00 0.10 0.00 60 1014.2
20260905154013 31 211 1.6 6.4 0.00 0.10 0.00 62 1014.1
20260905153516 31 313 1.6 6.4 0.00 0.10 0.00 61 1014.3
20260905153032 31 244 0.0 3.2 0.00 0.10 0.00 62 1014.3
20260905152520 31 208 1.6 4.8 0.00 0.10 0.00 61 1014.3
20260905152016 31 243 3.2 4.8 0.00 0.10 0.00 61 1014.3
20260905151533 31 289 1.6 6.4 0.00 0.10 0.00 63 1014.3
20260905151018 31 252 0.0 6.4 0.00 0.10 0.00 66 1014.3
20260905150517 30 213 0.0 3.2 0.00 0.10 0.00 65 1014.4
20260905150033 30 197 1.6 6.4 0.00 0.10 0.00 65 1014.4
20260905145518 30 265 1.6 6.4 0.00 0.10 0.00 66 1014.4
20260905145016 30 302 1.6 4.8 0.00 0.10 0.00 67 1014.5
20260905144520 30 167 1.6 4.8 0.00 0.10 0.00 68 1014.6
20260905144013 30 213 0.0 3.2 0.00 0.10 0.00 68 1014.5
20260905143515 29 200 0.0 6.4 0.00 0.10 0.00 69 1014.5
20260905143029 29 337 1.6 6.4 0.00 0.10 0.00 70 1014.5
20260905142515 29 246 0.0 6.4 0.00 0.10 0.00 71 1014.4
20260905142014 28 322 1.6 4.8 0.00 0.10 0.00 71 1014.5
20260905141535 28 295 1.6 4.8 0.00 0.10 0.00 72 1014.4
20260905141015 28 262 0.0 6.4 0.00 0.10 0.00 73 1014.4
20260905140515 28 253 1.6 6.4 0.00 0.10 0.00 73 1014.3
20260905140036 28 209 0.0 3.2 0.00 0.10 0.00 73 1014.3
20260905135515 27 223 0.0 3.2 0.00 0.10 0.00 75 1014.4
20260905135017 27 218 0.0 3.2 0.00 0.10 0.00 76 1014.4
20260905134518 27 234 0.0 3.2 0.00 0.10 0.00 76 1014.4
20260905134008 27 223 0.0 3.2 0.00 0.10 0.00 77 1014.5
20260905133512 27 246 0.0 3.2 0.00 0.10 0.00 78 1014.5
20260905133026 27 266 0.0 3.2 0.00 0.10 0.00 79 1014.4
20260905132514 26 305 0.0 3.2 0.00 0.10 0.00 79 1014.5
20260905132019 26 248 0.0 3.2 0.00 0.10 0.00 80 1014.5
20260905131529 26 250 0.0 3.2 0.00 0.10 0.00 80 1014.5
20260905131016 26 223 0.0 3.2 0.00 0.10 0.00 81 1014.6
20260905130519 25 209 0.0 3.2 0.00 0.10 0.00 82 1014.7
20260905130034 25 235 0.0 3.2 0.00 0.10 0.00 83 1014.6
20260905125517 25 235 0.0 3.2 0.00 0.10 0.00 84 1014.7
20260905125019 25 216 0.0 3.2 0.00 0.10 0.00 84 1014.7
20260905124534 25 216 0.0 3.2 0.00 0.10 0.00 85 1014.7
20260905124018 24 216 0.0 3.2 0.00 0.10 0.00 86 1014.8
20260905123511 24 208 0.0 3.2 0.00 0.10 0.00 86 1014.7
20260905123030 23 111 0.0 3.2 0.00 0.10 0.00 88 1014.8
20260905122515 23 111 0.0 3.2 0.00 0.10 0.00 89 1014.7
20260905122014 23 111 0.0 0.0 0.00 0.10 0.00 90 1014.7
20260905121528 23 111 0.0 3.2 0.00 0.10 0.00 91 1014.7
20260905121019 22 111 0.0 3.2 0.00 0.10 0.00 92 1014.7
20260905120515 22 111 0.0 3.2 0.00 0.10 0.00 93 1014.7
20260905120030 22 111 0.0 3.2 0.00 0.10 0.00 94 1014.6
20260905115515 22 111 0.0 1.6 0.00 0.10 0.00 94 1014.6
20260905115018 22 111 0.0 1.6 0.00 0.10 0.00 94 1014.5
20260905114534 22 111 0.0 1.6 0.00 0.10 0.00 94 1014.4
20260905114020 22 111 0.0 0.0 0.00 0.10 0.00 94 1014.3
20260905113518 22 111 0.0 0.0 0.00 0.10 0.00 94 1014.3
20260905113030 22 111 0.0 0.0 0.00 0.10 0.00 94 1014.2
20260905112508 22 111 0.0 3.2 0.00 0.10 0.00 94 1014.2
20260905112015 22 111 0.0 3.2 0.00 0.10 0.00 94 1014.2
20260905111526 22 111 0.0 3.2 0.00 0.10 0.00 94 1014.0
20260905111014 22 111 0.0 0.0 0.00 0.10 0.00 94 1013.9
20260905110514 22 111 0.0 0.0 0.00 0.10 0.00 93 1014.0
20260905110029 22 111 0.0 0.0 0.00 0.10 0.00 93 1014.0
20260905105516 22 111 0.0 0.0 0.00 0.10 0.00 93 1013.9
20260905105017 22 111 0.0 0.0 0.00 0.10 0.00 93 1014.0
20260905104533 22 111 0.0 0.0 0.00 0.10 0.00 94 1013.9
20260905104018 22 111 0.0 0.0 0.00 0.10 0.00 93 1013.9